RUK96WL LFOB-EGAA

Flight info

Callsign RUK96WL
Flight time 1h 20m
Altitude 40000
Route ATREX DCT VESAN DCT RATUK DCT SOVAT DCT LESTA UP6 RODOL UM65 TENSO L603 BELOX DCT REMSI DCT UVPOK M147 ROBOP M146 IPSET P6 BELZU
Aircraft B738/M-SDE2E3FGHIRWXY/LB1

Departure

Time 2026-04-27 17:40
Airport Beauvais-Tillé airport (LFOB)

Arrival

Time 2026-04-27 19:00
Airport Belfast International Airport (EGAA)
Time Latitude Longitude Altitude Speed Heading
2026-04-27 17:18 49.45829 2.11106 350 ft 0 kts 33°
2026-04-27 17:33 49.45828 2.11105 350 ft 2 kts 33°
2026-04-27 17:33 49.45809 2.11086 360 ft 2 kts 33°
2026-04-27 17:34 49.45788 2.11070 355 ft 4 kts 359°
2026-04-27 17:34 49.45766 2.11084 353 ft 4 kts 307°
2026-04-27 17:34 49.45762 2.11092 355 ft 0 kts 303°
2026-04-27 17:36 49.45784 2.11040 356 ft 16 kts 297°
2026-04-27 17:36 49.45709 2.10912 359 ft 21 kts 208°
2026-04-27 17:36 49.45591 2.10932 359 ft 22 kts 123°
2026-04-27 17:37 49.45504 2.11135 357 ft 23 kts 123°
2026-04-27 17:37 49.45398 2.11377 357 ft 31 kts 123°
2026-04-27 17:37 49.45272 2.11667 357 ft 38 kts 123°
2026-04-27 17:37 49.45132 2.11992 363 ft 36 kts 123°
2026-04-27 17:38 49.44992 2.12311 359 ft 37 kts 124°
2026-04-27 17:38 49.44848 2.12643 360 ft 38 kts 123°
2026-04-27 17:38 49.44707 2.12967 358 ft 30 kts 123°
2026-04-27 17:38 49.44652 2.13149 361 ft 12 kts 189°
2026-04-27 17:39 49.44678 2.13035 364 ft 19 kts 303°
2026-04-27 17:39 49.44808 2.12737 359 ft 59 kts 304°
2026-04-27 17:39 49.45172 2.11895 360 ft 127 kts 304°
2026-04-27 17:39 49.45764 2.10554 574 ft 164 kts 308°
2026-04-27 17:40 49.46442 2.09095 1122 ft 170 kts 309°
2026-04-27 17:40 49.47312 2.07835 1333 ft 168 kts 335°
2026-04-27 17:40 49.48380 2.07251 2255 ft 164 kts 346°
2026-04-27 17:40 49.49542 2.06729 2736 ft 190 kts 346°
2026-04-27 17:41 49.50902 2.06120 2981 ft 216 kts 346°
2026-04-27 17:41 49.52394 2.05460 3459 ft 228 kts 346°
2026-04-27 17:41 49.53939 2.04767 4090 ft 233 kts 345°
2026-04-27 17:41 49.55505 2.04059 4750 ft 237 kts 345°
2026-04-27 17:42 49.57069 2.03349 5514 ft 234 kts 344°
2026-04-27 17:42 49.58645 2.02635 6094 ft 239 kts 343°
2026-04-27 17:42 49.60235 2.01909 6743 ft 240 kts 343°
2026-04-27 17:42 49.61844 2.01178 7306 ft 244 kts 342°
2026-04-27 17:43 49.63451 2.00444 7912 ft 246 kts 342°
2026-04-27 17:43 49.65094 1.99691 8569 ft 246 kts 342°
2026-04-27 17:43 49.66752 1.98931 9110 ft 251 kts 341°
2026-04-27 17:43 49.68439 1.98157 9656 ft 256 kts 342°
2026-04-27 17:44 49.70163 1.97365 10206 ft 259 kts 341°
2026-04-27 17:44 49.71894 1.96570 10731 ft 261 kts 341°
2026-04-27 17:44 49.73645 1.95764 11244 ft 264 kts 341°
2026-04-27 17:44 49.75413 1.94950 11770 ft 266 kts 340°
2026-04-27 17:45 49.77191 1.94132 12294 ft 268 kts 340°
2026-04-27 17:45 49.78987 1.93304 12805 ft 270 kts 340°
2026-04-27 17:45 49.80796 1.92469 13306 ft 272 kts 340°
2026-04-27 17:45 49.82623 1.91625 13818 ft 275 kts 339°
2026-04-27 17:46 49.84461 1.90776 14283 ft 277 kts 339°
2026-04-27 17:46 49.86314 1.89919 14737 ft 278 kts 339°
2026-04-27 17:46 49.88175 1.89058 15194 ft 280 kts 339°
2026-04-27 17:46 49.90050 1.88190 15631 ft 282 kts 339°
2026-04-27 17:47 49.91914 1.87326 16083 ft 283 kts 339°
2026-04-27 17:47 49.93193 1.86733 16373 ft 285 kts 339°
2026-04-27 17:47 49.95718 1.85561 16959 ft 287 kts 339°
2026-04-27 17:47 49.97634 1.84671 17420 ft 288 kts 339°
2026-04-27 17:48 49.99563 1.83774 17834 ft 290 kts 339°
2026-04-27 17:48 50.01506 1.82870 18244 ft 292 kts 339°
2026-04-27 17:48 50.03459 1.81959 18646 ft 294 kts 339°
2026-04-27 17:48 50.05418 1.81047 19024 ft 294 kts 339°
2026-04-27 17:49 50.07385 1.80130 19389 ft 295 kts 339°
2026-04-27 17:49 50.09357 1.79209 19745 ft 296 kts 339°
2026-04-27 17:49 50.11336 1.78284 20100 ft 298 kts 339°
2026-04-27 17:49 50.13321 1.77355 20441 ft 299 kts 339°
2026-04-27 17:50 50.15319 1.76420 20806 ft 300 kts 339°
2026-04-27 17:50 50.19331 1.74539 21519 ft 302 kts 339°
2026-04-27 17:50 50.21343 1.73595 21860 ft 303 kts 339°
2026-04-27 17:51 50.22683 1.72966 22069 ft 304 kts 339°
2026-04-27 17:51 50.24717 1.72010 22376 ft 305 kts 339°
2026-04-27 17:51 50.26759 1.71049 22690 ft 307 kts 339°
2026-04-27 17:51 50.28812 1.70082 23004 ft 308 kts 339°
2026-04-27 17:52 50.30865 1.69114 23310 ft 309 kts 339°
2026-04-27 17:52 50.32928 1.68141 23599 ft 310 kts 339°
2026-04-27 17:52 50.35000 1.67162 23871 ft 312 kts 339°
2026-04-27 17:52 50.37087 1.66176 24107 ft 313 kts 339°
2026-04-27 17:53 50.39174 1.65188 24327 ft 315 kts 339°
2026-04-27 17:53 50.41280 1.64191 24577 ft 316 kts 339°
2026-04-27 17:53 50.43380 1.63196 24822 ft 316 kts 339°
2026-04-27 17:53 50.45489 1.62196 25033 ft 317 kts 339°
2026-04-27 17:54 50.47608 1.61189 25233 ft 319 kts 339°
2026-04-27 17:54 50.49736 1.60178 25440 ft 320 kts 339°
2026-04-27 17:54 50.51871 1.59162 25644 ft 321 kts 339°
2026-04-27 17:54 50.54013 1.58142 25841 ft 322 kts 339°
2026-04-27 17:55 50.56138 1.57129 26033 ft 324 kts 339°
2026-04-27 17:55 50.58297 1.56099 26218 ft 325 kts 339°
2026-04-27 17:55 50.60464 1.55064 26409 ft 326 kts 339°
2026-04-27 17:55 50.62642 1.54023 26595 ft 327 kts 339°
2026-04-27 17:56 50.64824 1.52979 26821 ft 327 kts 338°
2026-04-27 17:56 50.67003 1.51936 27046 ft 327 kts 338°
2026-04-27 17:56 50.69195 1.50884 27192 ft 330 kts 338°
2026-04-27 17:56 50.71413 1.49818 27266 ft 337 kts 338°
2026-04-27 17:57 50.73683 1.48724 27291 ft 349 kts 338°
2026-04-27 17:57 50.76064 1.47563 27383 ft 362 kts 336°
2026-04-27 17:57 50.78387 1.45939 27476 ft 370 kts 327°
2026-04-27 17:57 50.80548 1.43647 27576 ft 378 kts 320°
2026-04-27 17:58 50.82677 1.41052 27667 ft 390 kts 319°
2026-04-27 17:58 50.84832 1.38361 27776 ft 400 kts 319°
2026-04-27 17:58 50.87015 1.35627 27895 ft 410 kts 319°
2026-04-27 17:58 50.89289 1.32787 28230 ft 413 kts 319°
2026-04-27 17:59 50.91551 1.29977 28697 ft 413 kts 319°
2026-04-27 17:59 50.93818 1.27168 29109 ft 414 kts 319°
2026-04-27 17:59 50.96098 1.24346 29459 ft 417 kts 319°
2026-04-27 17:59 50.98388 1.21514 29791 ft 419 kts 320°
2026-04-27 18:00 51.00694 1.18659 30124 ft 421 kts 320°
2026-04-27 18:00 51.03009 1.15792 30448 ft 423 kts 320°
2026-04-27 18:00 51.05340 1.12900 30703 ft 425 kts 319°
2026-04-27 18:00 51.07669 1.10008 31025 ft 426 kts 319°
2026-04-27 18:01 51.10001 1.07108 31402 ft 425 kts 319°
2026-04-27 18:01 51.12297 1.04251 31774 ft 424 kts 319°
2026-04-27 18:01 51.14619 1.01355 32087 ft 425 kts 319°
2026-04-27 18:01 51.16977 0.98411 32407 ft 425 kts 319°
2026-04-27 18:02 51.19305 0.95500 32754 ft 425 kts 319°
2026-04-27 18:02 51.21600 0.92629 33123 ft 424 kts 319°
2026-04-27 18:02 51.23909 0.89736 33460 ft 424 kts 319°
2026-04-27 18:02 51.26269 0.86773 33722 ft 426 kts 319°
2026-04-27 18:03 51.28571 0.83877 33989 ft 427 kts 319°
2026-04-27 18:03 51.30903 0.80941 34292 ft 427 kts 319°
2026-04-27 18:03 51.33239 0.77997 34532 ft 427 kts 319°
2026-04-27 18:03 51.35534 0.75101 35295 ft 413 kts 320°
2026-04-27 18:04 51.37775 0.72274 35704 ft 410 kts 320°
2026-04-27 18:04 51.40028 0.69423 35750 ft 416 kts 320°
2026-04-27 18:04 51.42336 0.66496 35858 ft 419 kts 320°
2026-04-27 18:04 51.44589 0.63638 36149 ft 417 kts 320°
2026-04-27 18:05 51.46852 0.60762 36506 ft 414 kts 320°
2026-04-27 18:05 51.49103 0.57900 36808 ft 413 kts 320°
2026-04-27 18:05 51.51356 0.55031 37020 ft 413 kts 320°
2026-04-27 18:05 51.53607 0.52161 37224 ft 413 kts 320°
2026-04-27 18:06 51.55857 0.49287 37476 ft 413 kts 320°
2026-04-27 18:06 51.58097 0.46423 37728 ft 411 kts 320°
2026-04-27 18:06 51.60333 0.43561 37968 ft 411 kts 320°
2026-04-27 18:06 51.62571 0.40692 38139 ft 412 kts 320°
2026-04-27 18:07 51.64810 0.37818 38349 ft 411 kts 320°
2026-04-27 18:07 51.67045 0.34945 38584 ft 410 kts 320°
2026-04-27 18:07 51.69274 0.32078 38793 ft 410 kts 319°
2026-04-27 18:07 51.71505 0.29204 38960 ft 410 kts 319°
2026-04-27 18:08 51.73735 0.26326 39089 ft 411 kts 319°
2026-04-27 18:08 51.75968 0.23441 39206 ft 411 kts 319°
2026-04-27 18:08 51.78208 0.20543 39326 ft 412 kts 319°
2026-04-27 18:08 51.80221 0.17937 39421 ft 413 kts 319°
2026-04-27 18:09 51.84721 0.12096 39547 ft 417 kts 320°
2026-04-27 18:09 51.86986 0.09151 39652 ft 418 kts 320°
2026-04-27 18:09 51.89249 0.06205 39779 ft 418 kts 320°
2026-04-27 18:10 51.93797 0.00271 39913 ft 421 kts 320°
2026-04-27 18:10 51.98372 -0.05713 40068 ft 423 kts 320°
2026-04-27 18:11 52.00661 -0.08713 40179 ft 423 kts 320°
2026-04-27 18:11 52.02956 -0.11725 40232 ft 425 kts 320°
2026-04-27 18:11 52.07566 -0.17789 40257 ft 428 kts 320°
2026-04-27 18:12 52.12212 -0.23916 40250 ft 431 kts 320°
2026-04-27 18:12 52.16876 -0.30084 40247 ft 432 kts 320°
2026-04-27 18:13 52.21515 -0.36235 40249 ft 432 kts 320°
2026-04-27 18:13 52.26177 -0.42436 40252 ft 432 kts 320°
2026-04-27 18:14 52.30828 -0.48639 40264 ft 431 kts 320°
2026-04-27 18:14 52.35476 -0.54854 40268 ft 431 kts 320°
2026-04-27 18:15 52.40076 -0.61024 40271 ft 430 kts 320°
2026-04-27 18:15 52.44695 -0.67235 40270 ft 429 kts 320°
2026-04-27 18:16 52.49298 -0.73443 40270 ft 428 kts 320°
2026-04-27 18:16 52.53899 -0.79666 40270 ft 428 kts 320°
2026-04-27 18:17 52.58332 -0.85679 40276 ft 428 kts 320°
2026-04-27 18:17 52.62921 -0.91919 40276 ft 428 kts 320°
2026-04-27 18:18 52.67506 -0.98173 40278 ft 428 kts 320°
2026-04-27 18:18 52.72090 -1.04441 40269 ft 428 kts 320°
2026-04-27 18:19 52.76579 -1.10882 40336 ft 428 kts 317°
2026-04-27 18:19 52.80885 -1.17684 40328 ft 429 kts 317°
2026-04-27 18:20 52.85189 -1.24540 40322 ft 429 kts 317°
2026-04-27 18:20 52.89510 -1.31375 40323 ft 430 kts 317°
2026-04-27 18:21 52.93849 -1.38228 40317 ft 430 kts 317°
2026-04-27 18:21 52.98181 -1.45087 40316 ft 431 kts 317°
2026-04-27 18:22 53.02507 -1.51960 40318 ft 432 kts 317°
2026-04-27 18:22 53.06850 -1.58878 40300 ft 431 kts 317°
2026-04-27 18:23 53.11173 -1.65803 40304 ft 432 kts 317°
2026-04-27 18:23 53.15489 -1.72758 40305 ft 432 kts 317°
2026-04-27 18:24 53.19804 -1.79725 40310 ft 432 kts 317°
2026-04-27 18:24 53.24231 -1.86499 40312 ft 431 kts 324°
2026-04-27 18:25 53.29337 -1.91569 40327 ft 430 kts 332°
2026-04-27 18:25 53.34567 -1.96423 40333 ft 430 kts 331°
2026-04-27 18:26 53.39764 -2.01327 40339 ft 430 kts 331°
2026-04-27 18:26 53.44985 -2.06304 40292 ft 431 kts 331°
2026-04-27 18:27 53.50190 -2.11284 40310 ft 430 kts 331°
2026-04-27 18:27 53.55391 -2.16269 40317 ft 430 kts 331°
2026-04-27 18:28 53.57858 -2.19125 40304 ft 432 kts 319°
2026-04-27 18:28 53.59910 -2.22823 40336 ft 433 kts 309°
2026-04-27 18:28 53.62769 -2.31783 40341 ft 438 kts 294°
2026-04-27 18:29 53.64905 -2.41378 40211 ft 432 kts 294°
2026-04-27 18:29 53.65943 -2.46095 39868 ft 426 kts 294°
2026-04-27 18:29 53.66981 -2.50769 39407 ft 425 kts 294°
2026-04-27 18:30 53.68030 -2.55442 38827 ft 427 kts 294°
2026-04-27 18:30 53.69088 -2.60135 38187 ft 427 kts 295°
2026-04-27 18:30 53.70133 -2.64765 37934 ft 418 kts 296°
2026-04-27 18:30 53.71155 -2.69305 37683 ft 411 kts 296°
2026-04-27 18:31 53.72166 -2.73795 37240 ft 408 kts 297°
2026-04-27 18:31 53.73172 -2.78267 36825 ft 405 kts 297°
2026-04-27 18:31 53.74163 -2.82680 36522 ft 400 kts 298°
2026-04-27 18:31 53.75140 -2.87048 36208 ft 394 kts 298°
2026-04-27 18:32 53.76103 -2.91360 35891 ft 390 kts 299°
2026-04-27 18:32 53.76734 -2.94190 35670 ft 387 kts 299°
2026-04-27 18:32 53.77676 -2.98424 35355 ft 383 kts 300°
2026-04-27 18:32 53.78608 -3.02616 35049 ft 378 kts 300°
2026-04-27 18:33 53.79527 -3.06760 34750 ft 374 kts 300°
2026-04-27 18:33 53.80434 -3.10860 34445 ft 370 kts 301°
2026-04-27 18:33 53.81329 -3.14906 34035 ft 365 kts 302°
2026-04-27 18:33 53.82213 -3.18905 33692 ft 361 kts 302°
2026-04-27 18:34 53.83087 -3.22875 33287 ft 359 kts 302°
2026-04-27 18:34 53.83956 -3.26826 32876 ft 357 kts 302°
2026-04-27 18:34 53.84817 -3.30752 32486 ft 354 kts 302°
2026-04-27 18:34 53.85670 -3.34649 32121 ft 352 kts 302°
2026-04-27 18:35 53.86515 -3.38512 31768 ft 349 kts 303°
2026-04-27 18:35 53.87354 -3.42356 31402 ft 347 kts 303°
2026-04-27 18:35 53.88185 -3.46176 31047 ft 344 kts 303°
2026-04-27 18:35 53.89010 -3.49978 30701 ft 342 kts 303°
2026-04-27 18:36 53.89825 -3.53754 30350 ft 340 kts 303°
2026-04-27 18:36 53.90635 -3.57521 29942 ft 337 kts 303°
2026-04-27 18:36 53.91434 -3.61245 29532 ft 335 kts 303°
2026-04-27 18:36 53.92218 -3.64898 29128 ft 333 kts 303°
2026-04-27 18:37 53.93005 -3.68572 28639 ft 331 kts 302°
2026-04-27 18:37 53.93793 -3.72247 28155 ft 331 kts 301°
2026-04-27 18:37 53.94577 -3.75916 27760 ft 330 kts 301°
2026-04-27 18:37 53.95354 -3.79564 27418 ft 327 kts 301°
2026-04-27 18:38 53.96055 -3.83239 27053 ft 331 kts 295°
2026-04-27 18:38 53.96461 -3.87131 26689 ft 336 kts 291°
2026-04-27 18:38 53.96797 -3.91051 26339 ft 334 kts 290°
2026-04-27 18:38 53.97125 -3.94943 25992 ft 332 kts 290°
2026-04-27 18:39 53.97456 -3.98813 25649 ft 330 kts 290°
2026-04-27 18:39 53.97791 -4.02658 25316 ft 328 kts 290°
2026-04-27 18:39 53.98127 -4.06475 24982 ft 326 kts 290°
2026-04-27 18:39 53.98461 -4.10272 24652 ft 324 kts 290°
2026-04-27 18:40 53.98792 -4.14046 24331 ft 322 kts 290°
2026-04-27 18:40 53.99152 -4.17778 24004 ft 315 kts 295°
2026-04-27 18:40 53.99834 -4.21218 23561 ft 303 kts 303°
2026-04-27 18:40 54.00788 -4.24382 22930 ft 300 kts 311°
2026-04-27 18:41 54.01977 -4.27297 22486 ft 299 kts 314°
2026-04-27 18:41 54.03184 -4.30155 22166 ft 296 kts 314°
2026-04-27 18:41 54.04381 -4.32990 21837 ft 294 kts 314°
2026-04-27 18:41 54.05565 -4.35813 21471 ft 293 kts 314°
2026-04-27 18:42 54.06743 -4.38638 21105 ft 292 kts 313°
2026-04-27 18:42 54.07516 -4.40500 20889 ft 291 kts 313°
2026-04-27 18:42 54.09073 -4.44259 20418 ft 289 kts 313°
2026-04-27 18:42 54.10225 -4.47062 20098 ft 288 kts 313°
2026-04-27 18:43 54.11370 -4.49862 19765 ft 287 kts 313°
2026-04-27 18:43 54.12516 -4.52665 19436 ft 286 kts 313°
2026-04-27 18:43 54.13653 -4.55446 19109 ft 285 kts 313°
2026-04-27 18:43 54.14773 -4.58187 18797 ft 284 kts 313°
2026-04-27 18:44 54.15899 -4.60950 18471 ft 283 kts 313°
2026-04-27 18:44 54.17023 -4.63705 18093 ft 283 kts 313°
2026-04-27 18:44 54.18148 -4.66459 17736 ft 283 kts 313°
2026-04-27 18:44 54.19271 -4.69206 17389 ft 282 kts 312°
2026-04-27 18:45 54.20392 -4.71952 17033 ft 282 kts 312°
2026-04-27 18:45 54.21514 -4.74702 16680 ft 281 kts 311°
2026-04-27 18:45 54.22632 -4.77445 16333 ft 281 kts 311°
2026-04-27 18:45 54.23748 -4.80187 15954 ft 281 kts 311°
2026-04-27 18:46 54.24861 -4.82924 15610 ft 281 kts 311°
2026-04-27 18:46 54.25976 -4.85668 15277 ft 280 kts 310°
2026-04-27 18:46 54.27086 -4.88406 14954 ft 280 kts 310°
2026-04-27 18:46 54.28195 -4.91143 14638 ft 280 kts 310°
2026-04-27 18:47 54.29304 -4.93881 14318 ft 280 kts 310°
2026-04-27 18:47 54.30412 -4.96623 13982 ft 280 kts 310°
2026-04-27 18:47 54.31515 -4.99355 13659 ft 278 kts 310°
2026-04-27 18:47 54.32611 -5.02073 13344 ft 276 kts 310°
2026-04-27 18:48 54.33703 -5.04784 13011 ft 275 kts 309°
2026-04-27 18:48 54.34787 -5.07479 12707 ft 274 kts 309°
2026-04-27 18:48 54.35868 -5.10166 12396 ft 273 kts 309°
2026-04-27 18:48 54.36946 -5.12851 12085 ft 272 kts 309°
2026-04-27 18:49 54.38017 -5.15519 11779 ft 271 kts 309°
2026-04-27 18:49 54.39084 -5.18183 11478 ft 270 kts 309°
2026-04-27 18:49 54.40146 -5.20836 11202 ft 268 kts 309°
2026-04-27 18:49 54.41185 -5.23431 10892 ft 267 kts 309°
2026-04-27 18:50 54.42236 -5.26061 10625 ft 266 kts 309°
2026-04-27 18:50 54.43277 -5.28669 10347 ft 264 kts 309°
2026-04-27 18:50 54.44317 -5.31278 10027 ft 264 kts 309°
2026-04-27 18:50 54.45365 -5.33862 9710 ft 262 kts 312°
2026-04-27 18:51 54.46599 -5.36171 9318 ft 262 kts 319°
2026-04-27 18:51 54.47891 -5.38374 9003 ft 261 kts 319°
2026-04-27 18:51 54.49167 -5.40576 8722 ft 260 kts 318°
2026-04-27 18:51 54.50429 -5.42787 8446 ft 258 kts 318°
2026-04-27 18:52 54.51677 -5.44993 8169 ft 257 kts 317°
2026-04-27 18:52 54.52828 -5.47355 7892 ft 258 kts 311°
2026-04-27 18:52 54.53884 -5.49850 7615 ft 258 kts 309°
2026-04-27 18:53 54.55961 -5.54864 7077 ft 256 kts 309°
2026-04-27 18:53 54.56997 -5.57351 6807 ft 255 kts 309°
2026-04-27 18:53 54.58052 -5.59871 6523 ft 255 kts 309°
2026-04-27 18:53 54.59076 -5.62309 6244 ft 254 kts 309°
2026-04-27 18:54 54.60128 -5.64809 5707 ft 263 kts 309°
2026-04-27 18:54 54.61211 -5.67379 5346 ft 266 kts 309°
2026-04-27 18:54 54.62299 -5.69968 5022 ft 266 kts 308°
2026-04-27 18:54 54.63386 -5.72552 4740 ft 265 kts 308°
2026-04-27 18:55 54.64452 -5.75090 4629 ft 257 kts 308°
2026-04-27 18:55 54.65484 -5.77553 4507 ft 250 kts 309°
2026-04-27 18:55 54.66494 -5.79964 4390 ft 244 kts 308°
2026-04-27 18:55 54.67475 -5.82304 4284 ft 236 kts 308°
2026-04-27 18:56 54.68422 -5.84571 4154 ft 230 kts 309°
2026-04-27 18:56 54.69361 -5.86808 3926 ft 228 kts 309°
2026-04-27 18:56 54.70293 -5.89024 3711 ft 226 kts 310°
2026-04-27 18:56 54.71223 -5.91247 3482 ft 225 kts 310°
2026-04-27 18:57 54.72132 -5.93429 3235 ft 223 kts 308°
2026-04-27 18:57 54.72666 -5.95961 2977 ft 231 kts 272°
2026-04-27 18:57 54.72152 -5.98556 2809 ft 233 kts 238°
2026-04-27 18:57 54.71292 -6.00888 2633 ft 227 kts 246°
2026-04-27 18:58 54.70645 -6.03355 2397 ft 224 kts 250°
2026-04-27 18:58 54.70216 -6.05002 2191 ft 220 kts 249°
2026-04-27 18:58 54.69387 -6.08078 1791 ft 206 kts 248°
2026-04-27 18:58 54.68789 -6.10287 1529 ft 193 kts 250°
2026-04-27 18:59 54.68248 -6.12301 1233 ft 178 kts 249°
2026-04-27 18:59 54.67750 -6.14141 1008 ft 162 kts 250°
2026-04-27 18:59 54.67291 -6.15854 768 ft 155 kts 250°
2026-04-27 18:59 54.66823 -6.17576 588 ft 169 kts 250°
2026-04-27 19:00 54.66339 -6.19376 359 ft 158 kts 251°
2026-04-27 19:00 54.65911 -6.21001 271 ft 127 kts 243°
2026-04-27 19:00 54.65625 -6.22053 272 ft 66 kts 244°
2026-04-27 19:00 54.65485 -6.22576 271 ft 31 kts 259°
2026-04-27 19:01 54.65634 -6.22772 271 ft 29 kts 343°
2026-04-27 19:01 54.65747 -6.22647 271 ft 23 kts 87°
2026-04-27 19:01 54.65762 -6.22374 271 ft 22 kts 83°
2026-04-27 19:01 54.65789 -6.22113 271 ft 22 kts 71°
2026-04-27 19:02 54.65864 -6.22016 271 ft 12 kts 339°
2026-04-27 19:02 54.65930 -6.21995 271 ft 11 kts 60°
2026-04-27 19:02 54.65947 -6.21934 271 ft 3 kts 65°
2026-04-27 19:02 54.65950 -6.21923 271 ft 0 kts 64°
2026-04-27 19:03 54.65950 -6.21922 271 ft 0 kts 64°